Location: Biberach+an+der+Riss
(48.0937°N, 9.7888°E)
Time: 08:00:53
(UTC+01:00)

ISS - Pass Details

Date: 15 November 2017
Orbit: 402 x 407 km, 51.6° (Epoch: 22 November)

Event Time Altitude Azimuth Distance (km) Brightness Sun altitude
Exits shadow 06:28:01 13° 264° (W) 1,277 -1.9 -10.0°
Maximum altitude 06:29:57 21° 220° (SW) 965 -2.1 -9.7°
Drops below altitude 10° 06:32:28 10° 169° (S) 1,448 -0.6 -9.3°
Sets 06:34:51 0° 152° (SSE) 2,303 0.8 -8.9°
